Regional Weather Roundup
Issued by NWS

Home | Current Version | Previous Version | Text Only | Print | Product List | Glossary Off
Versions: 1 2 3 4 5 6 7 8 9 10 11 12 13 14 15 16 17 18 19 20 21 22 23 24 25 26 27 28 29 30 31 32 33 34 35 36 37 38 39 40 41 42 43 44 45 46 47 48 49 50

357
ASUS43 KTOP 222008
RWRKS

WEATHER ROUNDUP FOR KANSAS
NATIONAL WEATHER SERVICE GOODLAND KS
200 PM CST WED NOV 22 2017

NOTE:  "FAIR" INDICATES FEW OR NO CLOUDS BELOW 12,000 FEET WITH NO
SIGNIFICANT WEATHER AND/OR OBSTRUCTIONS TO VISIBILITY.

KSZ001>006-013>018-027>032-041>047-222100-
NORTHWEST KANSAS

CITY           SKY/WX    TMP DP  RH WIND       PRES   REMARKS
GOODLAND       SUNNY     70  33  25 W16G22    30.14F
HAYS           SUNNY     57  25  29 SW22      30.16F
HILL CITY      SUNNY     61  32  33 SW10G21   30.14F
RUSSELL        SUNNY     54  22  28 S24G30    30.16F
$$

KSZ061>065-074>080-084>089-222100-
SOUTHWEST KANSAS

CITY           SKY/WX    TMP DP  RH WIND       PRES   REMARKS
DODGE CITY     SUNNY     58  25  28 SW17G28   30.20F
ELKHART        CLOUDY    65  37  35 CALM      30.20F
GARDEN CITY    SUNNY     59  31  34 SW12      30.18F
GREAT BEND     SUNNY     54  21  27 S18       30.20F
LIBERAL        CLOUDY    63  32  31 SW12      30.20F
PRATT          SUNNY     50  14  24 S17       30.22F
$$

KSZ066>073-081>083-090>101-222100-
SOUTHEAST KANSAS

CITY           SKY/WX    TMP DP  RH WIND       PRES   REMARKS
CHANUTE        SUNNY     43  18  36 VRB5      30.33F
COFFEYVILLE    SUNNY     43  18  36 CALM      30.33F
HUTCHINSON     SUNNY     49  17  28 S15       30.24F
MEDICINE LODGE   N/A     47  16  29 S13       30.26F
NEWTON         SUNNY     44  17  33 S12       30.27F
PARSONS        SUNNY     43  18  36 VRB5      30.33F
WICHITA INTL   MOSUNNY   45  18  34 S9        30.29F
WICHITA JABRA  SUNNY     44  17  33 S9        30.28F
WICHITA MCCONL SUNNY     45  14  29 SW9       30.28F
WINFIELD       SUNNY     44  18  35 VRB3      30.33F
$$

KSZ007>012-019>026-033>040-048>060-102>105-222100-
NORTHEAST KANSAS

CITY           SKY/WX    TMP DP  RH WIND       PRES   REMARKS
CONCORDIA      SUNNY     45  17  32 S16G23    30.20F
EMPORIA        SUNNY     44  14  29 VRB7      30.29F
LAWRENCE       SUNNY     42  16  34 VRB6      30.32F
MANHATTAN      SUNNY     45  15  30 SW10      30.26F
MARYSVILLE     SUNNY     41  18  38 S12       30.23F
OLATHE IND     SUNNY     40  15  36 W8        30.32F
SALINA         SUNNY     50  18  28 S13       30.24F
TOPEKA BILLARD CLOUDY    43  15  32 S8        30.30F
TOPEKA FORBES  CLOUDY    43  16  33 S7        30.30F
$$




USA.gov is the U.S. government's official web portal to all federal, state and local government web resources and services.